DMSP 5D-2 F13 DEB, 40500

Orbit data source: Space-Track

DMSP 5D-2 F13 DEB, 40500 is space debris in SSO originally from a launch on Fri, 24 Mar 1995 UTC launched from the Air Force Western Test Range (AFWTR). Debris objects in space refer to the collection of defunct objects orbiting the Earth. Examples of debris include non-operational satellites, rocket bodies, and fragments generated from explosions, collisions, or faulty payload assembly.

Loading next visibility...
Identifier
40500, 1995-015CP
Orbit
SSO
Country
Flag of USUS
Related business
Manufacturer
Unknown
Mission
Spacecraft
Bus & Motor
Unknown
Mass
Unknown
Launch date (UTC)
1995-03-24 (31 years ago)
Launch vehicle
Unknown
Launch site
Air Force Western Test Range (AFWTR)
Object type
Payload
Rocket body
Debris
Shape & HBR
Unknown shape, 0.1 m
Radar Cross Section
Small (<0.1 m²)

Expand to show TLE details & history
Last TLE update: 2 weeks ago

TLE from 2 weeks ago
0 DMSP 5D-2 F13 DEB
1 40500U 95015CP  26161.54297974  .00394388  00000-0  11354-1 0  9992
2 40500  98.7715 265.3948 0014849 247.6671 112.2994 15.34026593585750
Epoch: 2026-06-10T13:01Z
TLE epoch observation values (Epoch: 2026-06-10T13:01:53.449Z)
Latitude
-0.00002°
Longitude
171.02247°
Altitude
470.749 km
Speed
7.629 km/s
True Right ascension
17h 41m 34s
True Declination
0° 00' 00"
Sunlit
Object was in full shadow at epoch
Visualization orbit readout
Latitude
Unknown
Longitude
Unknown
Altitude
Unknown
Speed
Unknown
Apparent Right ascension
Unknown
Apparent Declination
Unknown
Sunlit
N/A
Visualization observer readout
Local Sidereal Time
13:25:23
Azimuth
Unknown
Elevation
Unknown
Doppler factor
Unknown
Orbital elements
Apogee altitude
470.98 km
Perigee altitude
450.669 km
Semi-major axis
6,838.962 km
Eccentricity
0.00148
Inclination
98.7715°
RAAN
265.3948°
Arg. of periapsis
247.6671°
True anomaly
112.45672°
Mean anomaly
112.2994°
Eccentric anomaly
112.37807°
Mean motion
3.83758 °/min
Orbital period
93.81 mins
BSTAR
0.011354
Loading maneuver chart data...
Computing Atmospheric mass density...

Documentation

Showing up to 5 results
|